Tracking 34719 objects as of 13-Jul-2026
HD Live streaming from Space Station
objects crossing your sky now

ONEWEB-0372

Track ONEWEB-0372 now!
10-day predictions
ONEWEB-0372 is classified as:


NORAD ID: 49298
Int'l Code: 2021-090V
Perigee: 1,187.3 km
Apogee: 1,190.5 km
Inclination: 87.9 °
Period: 109.0 minutes
Semi major axis: 7559 km
RCS: Unknown
Launch date: October 14, 2021
Source: United Kingdom (UK)
Launch site: VOSTOCHNY COSMODROME (VOSTO)
Your satellite tracking list
Your tracking list is empty




NASA's NSSDC Master Catalog

Two Line Element Set (TLE):
1 49298U 21090V   26193.69220584 -.00000202  00000-0 -52796-3 0  9999
2 49298  87.9188 269.3600 0002100  99.5125 260.6246 13.20770464233205
Source of the keplerian elements: AFSPC